SCP
0 0 0 0 0 0 0 0 0 0 0 -0 -0 -0 0 0 0 0 0 0 0 0 0 0 0 0 0 0 0 0 0 0 0 0 0 0 0 0 0 0 0 0 0
0 0 0 0 0 0 0 0 0 0 0 -0 -0 -0 0 0 0 0 0 0 0 0 0 0 0 0 0 0 0 0 0 0 0 0 0 0 0 0 0 0 0 0 0
0 0 0 0 0 0 0 0 0 0 0 0 0 0 0 0 0 0 0 -0 0 0 0 0 0 0 0 0 0 0 0 0 0 0 0 0 0 0 0 0 0 0 0
0 0 0 0 0 0 0 0 0 0 0 0 0 0 0 0 0 0 0 0 0 0 0 0 0 0 0 0 0 0 0 0 0 0 0 0 0 0 0 0 0 0 0
0 0 0 0 0 0 0 0 0 0 0 0 0 0 0 0 0 0 0 0 0 0 0 0 0 0 0 0 0 0 0 0 0 0 0 0 0 0 0 0 0 0 0
0 0 0 0 0 0 0 0 0 0 0 0 0 0 0 0 0 0 0 0 0 0 0 0 0 0 0 0 0 0 0 0 0 0 0 0 0 0 0 0 0 0 0
0 0 0 0 0 0 0 0 0 0 0 0 0 0 0 0 0 0 0 0 0 0 0 0 0 0 0 0 0 0 0 0 0 0 0 0 0 0 0 0 0 0 0
0 0 0 0 0 0 0 0 0 0 0 0 0 0 0 0 0 0 0 0 0 0 0 0 0 0 0 0 0 0 0 0 0 0 0 0 0 0 0 0 0 0 0
0 0 0 0 0 0 0 0 0 0 0 0 0 0 0 0 0 0 0 0 0 0 0 0 0 0 0 0 0 0 0 0 0 0 0 0 0 0 0 0 0 0 0
0 0 0 0 0 0 0 0 0 0 0 0 0 0 0 0 0 0 0 0 0 0 0 0 0 0 0 0 0 0 0 0 0 0 0 0 0 0 0 0 0 0 0
0 0 0 0 0 0 0 0 0 0 0 0 0 0 0 0 0 0 0 0 0 0 0 0 0 0 0 0 0 0 0 0 0 0 0 0 0 0 0 0 0 0 0
0 0 0 0 0 0 0 0 0 0 0 0 0 0 0 0 0 0 0 0 0 0 0 0 0 0 0 0 0 0 0 0 0 0 0 0 0 0 0 0 0 0 0
0 0 0 0 0 0 0 0 0 0 0 0 0 0 0 0 0 0 0 0 0 0 0 0 0 0 0 0 0 0 0 0 0 0 0 0 0 0 0 0 0 0 0
0 0 0 0 0 0 0 0 0 0 0 0 0 0 0 0 0 0 0 0 0 0 0 0 0 0 0 0 0 0 0 0 0 0 0 0 0 0 0 0 0 0 0
0 0 0 0 0 0 0 0 0 0 0 0 0 0 0 0 0 0 0 0 0 0 0 0 0 0 0 0 0 0 0 0 0 0 0 0 0 0 0 0 0 0 0
0 0 0 0 0 0 0 0 0 0 0 0 0 0 0 0 0 0 0 0 0 0 0 0 0 0 0 0 0 0 0 0 0 0 0 0 0 0 0 0 0 0 0
0 0 0 0 0 0 0 0 0 0 0 0 0 0 0 0 0 0 0 0 0 0 0 0 0 0 0 0 0 0 0 0 0 0 0 0 0 0 0 0 0 0 0
0 0 0 0 0 0 0 0 0 0 0 0 0 0 0 0 0 0 0 0 0 0 0 0 0 0 0 0 0 0 0 0 0 0 0 0 0 0 0 0 0 0 0
0 0 0 0 0 0 0 0 0 0 0 0 0 0 0 0 0 0 0 0 0 0 0 0 0 0 0 0 0 0 0 0 0 0 0 0 0 0 0 0 0 0 0
0 0 0 0 0 0 0 0 0 0 0 0 0 0 0 0 0 0 0 0 0 0 0 0 0 0 0 0 0 0 0 0 0 0 0 0 0 0 0 0 0 0 0
0 0 0 0 0 0 0 0 0 0 0 0 0 0 0 0 0 0 0 0 0 0 0 0 0 0 0 0 0 0 0 0 0 0 0 0 0 0 0 0 0 0 0
0 0 0 0 0 0 0 0 0 0 0 0 0 0 0 0 0 0 0 0 0 0 0 0 0 0 0 0 0 0 0 0 0 0 0 0 0 0 0 0 0 0 0
0 0 0 0 0 0 0 0 0 0 0 0 0 0 0 0 0 0 0 0 0 0 0 0 0 0 0 0 0 0 0 0 0 0 0 0 0 0 0 0 0 0 0
0 0 0 0 0 0 0 0 0 0 0 0 0 0 0 0 0 0 0 0 0 0 0 0 0 0 0 0 0 0 0 0 0 0 0 0 0 0 0 0 0 0 0
0 0 0 0 0 0 0 0 0 0 0 0 0 0 0 0 0 0 0 0 0 0 0 0 0 0 0 0 0 0 0 0 0 0 0 0 0 0 0 0 0 0 0
0 0 0 0 0 0 0 0 0 0 0 0 0 0 0 0 0 0 0 0 0 0 0 0 0 0 0 0 0 0 0 0 0 0 0 0 0 0 0 0 0 0 0
Wind_Speed
8 7 7 5 5 5 4 4 3 3 4 3 3 2 2 2 2 2 1 1 1 2 2 2 2 2 1 1 1 0 1 1 1 1 1 1 1 2 1 2 2 2 2
7 7 6 6 6 5 5 5 4 4 4 3 3 2 2 2 2 2 2 1 1 1 1 1 1 1 1 1 0 0 0 1 2 1 0 1 1 2 2 2 2 2 2
7 7 7 7 6 5 5 5 5 4 4 4 3 3 2 2 2 1 2 1 1 1 1 1 1 1 0 1 0 0 1 1 1 1 1 1 1 1 2 2 2 2 2
8 8 7 7 6 6 5 5 5 4 4 4 4 3 3 2 2 2 2 2 1 1 1 0 0 0 0 0 0 0 1 0 1 1 1 1 1 1 2 3 3 2 2
8 8 7 7 6 6 5 5 4 4 4 4 4 3 3 2 1 2 2 2 1 1 1 1 1 2 3 2 1 1 1 1 1 1 2 2 2 2 2 3 3 3 3
9 8 7 7 6 6 6 5 5 4 4 4 4 4 3 2 2 1 2 2 2 2 1 1 2 2 2 2 1 2 2 2 3 2 3 3 4 3 3 3 4 4 4
9 8 8 7 7 7 6 6 6 5 5 4 4 4 4 4 4 4 4 3 2 1 1 1 1 1 2 2 3 4 3 3 4 5 4 4 4 4 4 4 4 5 5
9 8 8 8 7 7 6 6 6 5 5 5 4 5 4 3 5 5 5 5 3 2 2 2 2 2 1 2 2 2 2 1 2 4 4 5 5 4 4 5 6 6 6
8 9 9 8 8 7 7 7 6 5 5 5 4 4 4 4 5 5 5 3 3 3 2 1 2 1 2 1 3 3 3 2 2 2 4 4 4 3 4 4 4 5 6
8 8 8 8 8 7 7 6 5 5 4 4 4 4 4 3 4 5 5 3 3 2 2 2 1 1 1 1 3 3 3 3 3 2 3 4 4 3 5 5 4 5 6
6 6 7 7 7 7 6 5 5 5 5 4 4 3 3 2 5 4 4 3 3 2 2 1 1 2 1 1 4 3 4 5 4 3 3 3 2 2 2 4 4 5 6
6 6 6 6 6 5 6 5 5 5 5 4 4 3 2 3 2 3 4 3 2 2 1 0 2 2 1 1 2 3 4 4 3 3 3 3 3 3 3 4 5 5 6
6 6 6 6 5 5 6 6 5 5 4 4 3 3 2 2 2 4 4 4 2 1 1 3 2 1 1 1 0 3 3 2 2 3 3 3 3 4 4 4 5 5 6
7 6 6 6 6 5 4 4 4 4 4 4 3 3 2 2 1 2 3 3 4 3 2 3 3 2 1 1 1 1 2 2 3 3 4 4 4 3 3 4 4 4 5
7 6 6 6 6 5 4 2 3 2 2 3 3 3 3 2 1 1 2 2 1 2 1 1 1 1 0 0 1 1 2 2 2 3 3 4 4 4 4 4 4 5 5
6 6 5 5 5 5 5 5 6 4 6 5 3 2 2 4 5 5 4 3 3 3 2 1 1 1 1 1 1 1 2 2 3 3 3 3 4 4 4 4 4 5 6
6 6 5 5 5 5 5 5 5 4 5 5 4 4 3 5 5 4 4 4 4 4 2 1 1 1 1 1 2 2 2 3 3 3 3 4 4 4 5 5 5 5 6
6 5 5 4 4 4 4 4 4 4 4 3 4 4 4 4 4 3 4 4 3 2 1 0 1 1 1 2 2 2 2 3 3 3 4 4 4 5 5 5 6 7 7
5 4 4 4 4 4 4 4 4 4 3 3 3 4 4 4 4 4 4 2 2 1 0 0 1 1 1 2 2 2 3 3 3 4 4 4 5 5 5 6 6 7 7
5 5 5 5 4 4 4 4 4 4 4 3 3 3 3 3 2 3 2 1 1 1 0 1 1 1 2 2 2 2 2 3 4 4 4 4 5 5 6 7 7 7 7
5 6 6 5 4 4 4 4 4 4 3 3 2 3 3 3 2 2 2 1 0 0 0 1 1 1 1 2 2 3 3 3 3 4 4 4 5 5 6 6 7 7 8
4 5 5 4 4 4 4 4 4 4 4 3 3 4 4 2 1 1 1 1 1 1 1 1 1 1 1 2 2 3 3 4 4 4 4 5 5 6 6 6 7 7 8
4 5 5 5 4 5 4 4 4 4 4 3 3 3 3 2 1 1 2 2 1 1 1 1 1 1 2 2 2 3 3 4 4 5 5 5 6 6 6 7 8 9 9
4 5 5 5 4 4 4 4 3 3 3 3 3 3 2 2 2 1 1 1 1 1 1 1 1 1 2 2 2 2 3 4 5 5 6 6 7 6 6 7 8 9 9
4 4 4 4 4 4 4 4 3 3 3 3 3 3 2 2 2 1 1 1 1 1 1 1 1 1 2 3 3 3 4 5 6 6 6 6 7 7 8 8 8 9 9
4 4 4 4 3 3 4 4 3 3 3 3 2 2 2 2 2 1 1 1 0 0 1 1 1 2 3 2 3 3 4 5 6 8 7 6 7 7 8 7 10 9 10
Wind_Direction
185 186 182 182 182 179 179 170 173 169 170 171 162 156 141 137 134 126 109 106 87 100 107 93 79 51 73 74 58 13 339 329 342 46 60 42 24 355 15 342 344 337 70
186 186 183 177 180 185 184 183 183 177 177 183 168 167 145 146 147 142 135 138 120 74 79 82 83 92 54 37 18 343 3 332 321 343 8 352 328 345 334 324 323 326 328
182 184 181 179 181 187 190 184 187 185 181 185 187 184 168 164 160 162 157 158 147 124 97 74 67 100 125 94 10 347 356 3 325 295 335 1 305 325 308 299 292 298 297
180 185 185 183 184 186 186 186 190 191 191 191 189 187 184 180 188 191 182 183 172 150 137 120 23 359 352 35 230 332 323 303 295 285 295 292 295 313 291 296 296 279 283
185 189 189 187 185 185 180 187 189 189 198 193 190 188 185 190 199 222 198 193 187 167 172 150 70 39 24 0 341 324 296 280 274 281 287 290 287 290 297 298 298 301 288
189 190 186 187 181 183 182 184 187 189 195 186 192 191 186 177 138 207 257 205 197 192 194 195 155 154 148 185 263 317 315 295 294 284 284 289 302 300 303 293 294 298 296
190 186 184 186 184 186 185 182 184 184 185 187 193 194 194 164 156 183 226 240 220 225 231 216 188 169 208 224 191 201 217 240 272 288 290 297 303 309 297 285 286 292 297
188 187 187 187 186 187 186 187 191 189 183 191 196 198 196 170 162 185 207 224 219 218 226 239 226 217 183 276 259 248 259 254 257 262 280 295 311 317 299 293 297 290 287
189 190 187 188 186 187 188 190 190 189 187 191 194 199 198 179 165 183 205 206 213 212 212 229 261 264 78 277 258 262 273 270 200 243 298 308 328 319 302 284 281 281 287
188 190 187 187 187 190 192 190 183 183 187 185 184 195 195 185 153 174 209 213 217 212 202 204 137 297 39 263 261 270 280 293 292 254 245 244 258 240 231 258 280 286 294
178 179 177 180 185 186 185 181 177 175 174 178 174 177 177 167 152 163 199 223 220 222 212 206 118 122 185 279 281 293 312 307 297 293 293 297 291 289 266 262 274 281 287
163 166 171 172 171 170 169 170 172 168 166 172 175 169 174 163 157 165 183 207 264 223 215 189 93 108 149 275 297 332 312 293 287 291 296 306 310 310 306 298 289 281 278
157 159 162 162 161 161 163 165 166 166 171 176 178 177 167 154 141 154 171 173 207 220 110 80 88 121 212 199 61 303 291 295 301 297 303 312 318 318 316 308 299 293 287
156 155 155 154 150 146 147 160 164 169 175 179 179 177 166 153 161 165 169 168 171 183 164 133 144 141 202 338 313 294 317 331 315 309 314 316 317 314 311 313 308 307 296
158 154 153 148 144 140 135 123 153 145 162 171 174 175 171 168 138 119 155 168 183 155 161 170 175 163 178 340 342 350 335 326 319 317 316 320 320 318 317 320 312 306 303
158 154 151 149 151 152 147 128 71 74 84 85 73 89 108 95 107 114 117 102 90 106 144 172 198 242 284 314 323 328 336 335 332 326 321 318 317 317 317 317 311 307 305
156 152 151 155 158 161 162 159 146 115 92 88 90 93 93 106 114 122 122 119 123 144 170 189 244 290 313 320 324 323 327 335 330 324 321 321 319 319 317 314 313 310 307
152 146 147 151 154 156 161 164 160 156 148 131 116 114 116 119 129 132 132 134 131 157 202 244 309 327 329 324 323 321 322 324 323 324 323 323 322 318 316 313 311 312 310
150 148 148 145 146 147 150 152 151 153 149 143 134 126 129 132 126 127 149 166 154 153 166 335 343 339 333 328 330 327 325 324 326 322 321 322 319 316 314 313 312 312 306
141 134 143 145 144 145 147 147 147 148 147 143 141 126 129 138 132 131 154 173 158 114 62 14 3 352 343 341 336 328 323 323 323 320 321 321 320 318 318 317 315 313 311
143 142 147 149 147 148 149 149 147 146 147 143 130 107 128 155 148 141 142 139 123 45 30 15 360 350 342 337 329 322 322 321 321 321 322 321 319 315 312 309 307 306 307
145 145 151 152 148 148 150 148 146 146 148 147 132 122 135 151 136 137 124 104 69 28 6 348 338 347 335 325 318 313 314 316 318 318 316 314 310 306 304 304 306 308 308
146 146 147 147 144 141 150 147 147 148 147 146 137 131 140 145 129 116 102 89 72 50 19 342 339 352 339 330 322 314 312 318 321 317 311 307 305 304 304 304 306 307 307
143 144 146 145 143 145 147 145 144 143 141 140 137 133 131 131 121 106 89 87 86 60 12 340 339 337 331 333 331 327 332 333 322 310 305 301 301 299 299 299 301 303 304
138 139 142 142 144 145 144 142 142 141 140 140 137 132 129 130 125 118 108 94 75 47 5 340 336 335 331 331 330 336 351 336 317 310 303 300 298 299 298 297 297 299 299
132 133 134 136 138 142 144 143 141 140 139 137 137 136 138 138 134 129 124 117 100 323 312 311 317 323 319 323 340 343 329 314 308 303 300 298 295 295 297 294 296 296 298